Theta_e
289 287 287 287 290 289 289 290 292 290 287 285 284 283 283 284 285 286 285 287 286 288 287 289 288 287 289 287 286 287 288 287 286 286 285 285 285 285 285 285 285 285 285 287 287 287 287 287 287 288 289 289 290 290 290 291 292 292 293 295 295 296 298 299 300 301 301 299 298 297 295 294 295 295 294 293 293 293 293 294 294 294 295 296 298 299
291 287 287 290 289 289 290 289 286 285 285 287 286 285 285 284 285 286 288 287 286 289 285 283 286 288 288 285 286 286 286 285 285 285 285 285 285 285 285 284 285 285 287 287 286 286 286 287 287 287 287 288 287 288 289 289 290 291 292 293 294 295 296 297 297 298 298 298 296 295 293 293 293 292 291 290 290 290 291 291 292 293 293 294 295 297
286 286 290 291 288 286 286 286 286 287 286 285 286 284 284 285 284 286 286 286 286 288 286 282 286 288 286 284 286 285 284 285 285 285 285 284 284 284 284 284 284 284 285 285 285 286 285 286 286 286 286 287 287 287 288 289 290 290 291 292 293 294 295 296 296 296 295 296 297 296 294 293 290 291 290 290 289 289 288 289 289 290 291 292 292 294
286 286 290 289 287 288 285 284 285 285 285 284 284 283 284 284 286 284 286 285 287 286 286 284 285 288 282 285 284 285 285 284 285 284 284 284 284 283 283 283 283 283 284 283 284 284 284 285 285 285 285 286 286 286 287 287 288 289 290 290 291 292 293 294 295 295 295 294 294 293 292 292 291 289 289 289 288 288 288 287 288 288 289 289 290 291
289 289 287 288 287 289 288 284 285 284 285 284 285 284 284 285 285 287 286 285 284 285 283 285 285 285 283 284 283 284 285 284 284 284 284 284 284 284 284 284 284 282 283 283 283 283 284 284 284 284 285 285 285 285 285 286 287 287 288 289 290 291 291 292 293 294 295 294 293 292 291 291 289 289 288 287 286 287 287 287 287 287 288 288 288 289
287 289 286 287 286 286 287 283 285 286 284 283 283 287 287 286 286 283 284 287 283 284 284 285 282 280 281 281 283 283 283 283 283 282 282 283 283 283 283 283 283 284 283 282 282 282 283 283 283 284 284 284 284 284 285 285 286 286 287 288 289 290 290 290 291 291 292 291 291 290 288 286 285 284 285 284 284 285 285 285 287 287 287 288 288 288
288 289 290 289 286 285 286 286 285 288 284 284 287 286 288 286 285 284 284 285 281 280 285 282 282 277 281 283 282 282 282 282 283 282 283 282 283 282 282 282 282 282 283 283 283 283 283 283 283 283 283 284 284 284 285 285 285 286 286 287 287 288 288 289 289 289 289 287 287 286 285 285 285 284 284 285 286 286 286 287 286 286 287 287 287 287
287 287 287 288 286 286 285 285 285 288 285 284 285 284 285 285 285 283 284 285 281 282 283 283 283 279 278 285 282 283 281 281 282 283 282 282 282 282 282 282 282 282 282 282 282 282 282 282 282 282 283 283 283 284 284 285 285 285 285 285 286 286 287 287 287 287 288 286 286 286 285 285 285 285 284 285 285 286 286 286 286 286 286 287 287 287
287 286 286 286 286 285 287 287 285 288 287 283 285 284 284 285 284 283 284 283 281 283 281 280 283 282 277 282 280 282 282 281 282 282 282 282 282 282 282 282 282 282 282 281 282 282 282 282 282 282 282 283 283 284 283 284 284 285 285 285 285 285 285 286 287 286 287 287 286 286 286 285 285 285 285 286 286 286 286 285 286 286 286 286 287 287
286 287 286 289 287 286 286 284 286 288 288 285 282 283 282 282 282 282 281 282 281 280 275 280 282 279 278 281 281 282 282 282 282 283 283 282 282 282 282 282 282 281 282 281 281 282 282 282 282 282 282 282 283 283 284 283 284 284 285 285 285 284 285 286 286 286 286 286 286 285 285 285 284 285 285 285 285 285 285 285 285 285 285 286 286 286
287 288 288 287 287 287 283 283 283 285 285 284 284 285 283 280 279 279 279 278 276 273 278 281 281 283 278 282 283 283 284 284 284 282 282 282 282 282 282 282 282 282 281 281 281 281 281 281 281 282 281 282 282 283 283 283 283 284 284 284 284 284 285 285 286 286 285 286 286 285 285 285 284 285 285 284 284 284 285 284 285 285 285 286 286 286
286 286 288 286 286 284 284 284 283 283 283 285 285 281 284 282 278 276 269 275 273 272 274 277 279 282 276 279 280 282 281 281 285 283 282 282 282 282 282 281 281 281 281 281 281 281 281 281 281 281 281 281 282 282 283 283 283 284 284 284 283 284 284 285 285 285 285 285 285 285 285 285 285 285 284 284 283 284 284 284 284 285 285 285 286 285
284 285 284 287 288 287 284 284 284 284 285 283 283 284 278 273 271 273 270 273 273 272 278 279 279 280 280 282 284 282 281 281 281 284 284 283 283 282 282 281 281 281 281 281 281 281 281 280 280 280 281 281 282 282 282 282 283 283 284 284 283 283 284 284 285 285 285 285 285 285 285 285 285 285 285 284 284 284 284 284 284 284 284 284 284 284
282 282 285 287 287 287 288 285 282 281 284 283 285 280 275 271 266 264 266 263 269 274 276 280 279 279 280 284 283 283 282 281 282 281 283 284 284 283 282 281 281 281 281 281 281 281 280 281 281 281 281 281 281 281 282 283 283 283 283 283 283 283 283 284 284 284 284 284 285 285 285 285 285 285 285 285 284 284 284 284 284 284 283 283 283 283
276 280 284 287 285 287 289 289 287 284 284 284 283 285 282 273 263 268 265 274 274 273 276 276 275 272 278 283 278 280 280 280 280 280 281 283 283 283 282 281 280 280 280 281 280 280 280 281 281 281 281 281 281 281 282 282 282 283 283 283 283 283 283 283 284 284 284 284 285 285 285 285 285 285 285 285 285 284 284 284 284 283 284 283 283 283
282 281 284 286 285 286 288 286 285 285 285 281 281 283 280 281 278 277 271 267 265 271 272 272 276 278 283 279 279 279 279 280 280 280 280 282 282 281 280 280 280 281 281 280 280 280 280 280 281 281 281 281 281 281 282 282 282 282 282 283 283 283 283 284 283 283 284 284 284 284 284 285 285 285 285 284 284 284 284 284 283 283 283 283 283 283
280 281 284 285 284 285 286 284 286 287 282 283 283 279 282 283 281 272 269 270 270 270 274 270 277 281 282 282 278 278 279 280 279 279 280 281 280 280 281 280 280 281 281 280 280 280 280 280 280 281 281 281 281 281 282 282 282 282 283 282 282 282 283 283 283 283 283 283 283 283 284 284 284 284 283 283 283 283 283 283 283 282 282 282 282 282
280 278 283 284 285 286 284 284 284 284 286 283 279 283 283 284 281 280 275 268 264 270 273 273 277 279 279 279 280 280 279 280 279 279 280 281 280 280 281 281 281 281 281 281 280 280 280 280 281 281 281 281 281 281 281 282 282 282 283 283 283 283 283 283 283 283 283 283 283 283 283 283 283 283 283 283 282 283 282 282 282 282 281 281 281 281
285 281 283 282 284 286 284 287 286 286 286 283 281 284 285 278 278 279 273 272 269 268 269 271 276 276 280 282 280 281 280 282 279 279 279 279 279 280 281 281 281 281 280 280 280 280 280 280 280 281 281 281 281 282 281 282 282 282 282 283 283 283 283 283 284 284 284 284 283 283 283 283 282 282 282 282 282 281 281 280 280 280 280 280 280 279
286 281 281 285 284 286 285 285 281 284 286 286 286 285 285 282 276 275 278 274 274 271 267 272 273 276 280 282 283 285 284 284 280 278 279 281 281 281 282 282 281 281 280 280 280 280 280 280 280 281 281 281 281 281 282 282 283 282 283 283 283 283 282 282 283 283 282 282 282 281 281 281 282 281 281 281 280 280 279 279 278 278 278 278 278 277
285 285 276 282 284 284 282 284 283 284 282 282 282 281 283 277 282 279 277 275 277 265 268 269 274 275 279 281 283 285 284 283 281 281 281 281 281 282 283 282 282 281 280 281 280 280 280 280 280 281 281 282 282 283 283 283 282 282 282 282 282 282 282 282 282 282 281 281 280 280 280 280 280 279 279 279 279 278 278 278 277 277 277 276 276 276
283 283 280 279 281 281 281 283 284 284 285 284 285 283 285 281 278 277 278 277 271 275 274 268 276 276 282 279 281 280 280 282 282 282 282 282 282 282 283 283 282 281 281 281 281 280 280 280 281 281 281 282 282 282 282 282 282 282 282 282 282 282 282 281 281 281 280 280 279 279 279 279 279 279 278 278 277 277 276 276 275 275 275 274 274 275
287 282 279 276 280 283 283 284 283 283 284 285 285 283 285 284 283 279 277 276 272 275 272 270 270 276 281 281 280 281 280 281 282 281 281 283 282 283 283 283 282 282 282 282 281 280 280 281 281 281 281 281 282 282 282 282 282 282 282 281 281 282 281 282 281 280 280 279 278 278 278 278 277 277 277 276 276 275 274 274 274 274 273 273 273 274
291 283 279 278 279 281 284 283 283 282 284 285 284 280 283 284 284 284 283 279 278 274 275 272 273 277 283 280 280 280 280 280 282 282 282 283 283 283 283 282 282 282 282 281 280 280 281 281 281 281 281 281 281 281 281 282 282 282 282 282 281 281 281 281 280 279 278 277 277 277 277 277 276 276 276 275 274 273 272 272 272 272 272 272 272 272
286 285 285 278 277 280 282 285 286 286 285 281 281 281 282 282 281 281 281 281 279 279 279 278 276 281 283 280 280 279 280 280 280 281 281 282 282 282 283 283 282 282 281 280 280 280 280 280 280 281 281 281 282 282 282 282 281 280 280 280 280 280 279 279 279 278 277 276 275 276 276 275 275 274 274 273 272 272 271 271 271 271 271 271 271 271
289 285 284 279 278 277 276 276 279 281 283 283 282 282 282 285 283 282 281 280 279 281 281 280 281 285 284 283 282 281 279 278 281 281 281 282 282 283 283 283 283 282 281 280 280 279 279 280 281 281 281 282 282 282 281 281 280 279 279 278 279 278 278 278 277 277 276 275 275 275 275 274 274 273 272 272 271 271 270 270 270 270 270 270 269 270
286 285 285 285 284 282 283 282 285 285 283 282 284 284 285 284 286 285 283 280 280 281 280 283 284 285 285 284 283 283 281 281 283 281 281 282 281 282 283 283 282 282 281 280 280 280 280 280 281 281 281 282 282 281 280 279 278 278 278 277 277 277 277 277 276 275 275 274 274 274 274 273 273 272 271 271 270 270 269 269 269 268 268 268 268 268
285 284 285 283 283 284 283 285 285 288 286 286 286 285 286 286 285 285 284 282 286 281 279 286 285 284 286 284 285 284 284 282 282 282 281 282 282 282 282 282 284 281 281 281 281 280 280 280 281 281 282 281 281 280 279 279 278 278 277 277 276 276 276 276 275 274 274 273 273 273 273 272 271 271 270 270 269 268 268 268 267 267 267 267 266 266
285 285 284 284 285 284 285 286 286 286 287 287 287 287 286 286 284 283 284 286 285 283 282 285 284 284 285 284 286 286 287 285 284 283 284 284 283 282 282 282 282 282 281 281 281 280 280 280 281 281 281 281 280 279 279 278 277 277 276 276 276 275 275 275 274 273 272 272 272 272 272 271 270 270 269 268 267 267 266 266 266 266 266 265 265 265
287 281 280 284 282 282 281 282 281 283 281 282 283 284 286 285 284 285 285 286 285 285 285 281 283 284 287 284 286 288 286 283 281 283 283 283 282 282 282 282 282 282 281 281 281 281 281 281 281 281 281 280 280 279 279 278 277 276 276 275 275 274 274 273 272 272 272 272 271 271 270 269 269 268 268 267 266 265 265 265 265 265 264 264 264 264
288 284 285 281 279 277 277 279 280 280 282 281 283 283 283 282 283 283 283 283 283 283 283 282 282 282 286 284 285 283 281 283 282 282 280 281 281 281 281 282 282 281 281 281 281 281 282 282 281 280 280 281 280 280 279 278 277 276 275 275 274 273 273 272 271 271 271 271 270 269 269 268 267 267 266 265 265 264 264 264 263 263 263 263 263 263
287 282 281 281 280 279 276 279 279 278 278 280 282 283 281 281 281 282 280 283 282 281 283 283 282 283 283 281 280 280 280 282 283 282 280 281 281 281 281 281 282 282 281 281 282 282 282 282 281 280 280 281 281 280 279 278 277 275 275 274 273 272 271 271 271 271 270 270 269 268 267 267 266 265 265 264 264 263 263 262 262 262 262 262 262 262
286 282 279 278 278 280 276 277 277 277 278 278 280 282 282 284 284 280 282 282 284 285 281 280 281 286 282 282 282 282 281 281 280 280 281 280 280 281 281 282 282 282 282 282 283 283 283 282 281 281 281 281 281 280 279 278 276 276 275 273 272 271 270 270 270 270 269 268 267 267 266 265 265 264 263 263 262 262 262 261 261 261 261 261 262 262
283 283 280 281 278 276 271 274 277 277 272 276 283 287 286 283 282 279 281 281 282 284 283 285 284 279 277 279 281 282 280 279 280 281 281 282 280 279 279 280 281 282 282 282 283 283 283 282 282 281 281 281 281 280 279 278 277 276 274 272 271 270 269 269 269 268 267 266 266 266 265 264 263 263 263 262 262 262 261 261 261 261 261 261 261 261
282 283 281 280 278 272 273 276 275 271 275 280 276 276 278 284 284 283 284 284 282 283 283 282 280 278 280 281 282 281 279 278 277 278 278 279 280 280 279 279 279 280 281 281 280 281 281 281 281 281 280 280 279 279 277 276 275 273 271 270 269 269 268 268 268 267 266 265 265 264 264 264 263 262 262 262 261 261 261 260 260 260 261 260 261 260
282 283 280 277 276 275 272 276 270 273 279 276 276 275 277 278 277 279 276 278 279 281 282 282 283 283 282 281 278 278 278 278 275 275 277 278 279 281 280 280 280 280 280 280 280 280 280 280 280 280 280 279 278 277 277 275 273 271 270 269 269 267 267 267 266 266 265 264 264 263 264 262 262 261 261 261 260 259 260 260 260 259 260 260 260 260
285 283 282 279 280 273 275 274 277 280 279 276 273 275 276 276 276 276 273 277 280 279 279 280 281 282 281 278 277 274 274 275 277 277 276 277 278 279 280 281 281 280 280 280 280 280 280 280 280 279 278 277 277 276 275 273 271 270 268 267 267 266 266 266 265 265 264 263 263 263 263 263 261 261 260 260 259 259 259 260 259 259 259 258 259 259
283 283 284 281 279 280 274 273 272 273 272 279 277 274 279 278 278 277 277 274 276 276 279 280 280 281 278 275 274 273 274 276 274 276 276 276 276 276 277 279 279 279 279 279 278 278 278 278 277 277 277 276 275 274 272 270 270 269 268 267 266 266 265 265 265 265 264 263 263 263 263 263 261 260 259 259 258 258 260 259 259 258 258 258 258 258
282 283 282 283 279 276 275 274 274 272 275 278 276 275 276 275 277 275 273 270 275 274 278 279 279 278 276 274 273 274 274 267 271 274 276 275 275 275 276 277 278 278 278 278 278 277 276 276 276 275 274 274 273 271 270 269 268 268 268 266 265 265 265 265 265 264 263 263 263 263 262 261 260 260 259 258 259 258 257 258 257 258 258 258 257 257
278 278 280 278 277 278 277 275 272 277 274 274 270 274 275 273 277 276 266 266 270 273 273 276 278 276 274 275 274 274 274 266 272 274 276 276 277 276 276 276 276 276 276 275 275 276 276 274 273 272 273 273 273 270 268 268 268 268 267 266 265 265 265 265 265 264 263 263 262 261 260 260 259 259 258 258 257 257 257 257 256 257 257 257 257 257
277 276 278 275 279 279 279 276 274 275 278 273 273 273 275 274 275 267 269 270 272 272 274 276 276 276 275 273 274 272 275 277 276 276 275 274 275 275 275 275 275 275 275 275 275 277 274 274 275 274 274 274 271 268 267 267 268 268 267 265 265 265 266 265 264 263 262 262 261 260 259 258 257 256 256 256 256 257 256 256 257 257 256 255 255 255
273 273 273 277 274 276 278 274 275 278 280 275 274 276 276 276 266 269 274 275 275 274 273 276 276 275 275 275 275 277 278 277 275 274 274 274 275 274 275 275 274 273 273 274 275 274 273 272 272 271 271 270 268 267 267 267 268 268 265 265 265 265 264 263 262 262 261 261 260 258 257 256 256 256 255 255 254 254 255 256 255 255 255 255 255 254
275 273 272 275 276 273 273 273 272 270 277 277 277 275 276 271 272 275 273 275 275 275 274 274 275 275 275 275 276 277 276 275 275 275 275 274 274 274 273 273 274 274 273 272 273 272 272 271 271 271 270 268 266 266 266 266 267 266 264 265 266 263 262 262 261 261 260 259 257 256 255 255 254 254 254 253 255 254 254 254 254 254 254 254 254 254
275 270 265 271 279 272 274 271 272 279 277 279 280 275 275 278 278 276 277 275 274 273 275 276 275 276 276 277 276 275 275 274 274 273 273 273 273 272 272 272 272 272 272 272 273 272 271 272 271 270 267 266 265 265 266 266 267 265 264 265 263 262 261 261 260 259 257 256 255 254 254 253 252 253 252 253 253 252 252 253 253 253 253 254 254 254
277 274 273 272 275 273 273 276 277 276 279 280 281 279 280 280 276 277 277 278 276 274 274 275 277 276 276 277 276 276 274 274 275 274 274 275 274 273 273 273 273 274 273 273 272 270 270 272 270 269 265 264 264 264 264 265 267 263 264 264 261 261 260 259 257 256 255 253 253 252 251 251 251 251 251 250 252 252 253 253 251 253 252 253 254 254
273 274 274 272 272 274 274 274 275 274 276 278 279 277 278 277 275 275 275 276 277 277 276 277 277 276 275 274 274 272 274 274 274 273 273 273 273 273 272 272 271 272 271 270 269 269 269 268 266 266 264 262 262 262 262 262 264 264 264 261 260 260 259 257 256 256 254 252 252 252 251 252 252 251 251 251 252 252 252 252 253 253 254 253 253 253
272 273 272 272 271 271 268 273 274 276 275 276 279 278 276 276 276 275 275 276 277 276 276 276 276 276 275 274 275 276 275 274 274 274 273 272 272 272 272 272 273 272 271 271 271 267 267 266 266 265 264 263 262 261 261 260 260 262 261 260 261 260 258 257 257 256 254 253 253 251 251 251 252 252 252 250 251 251 252 253 252 252 253 253 253 253
271 275 272 272 272 272 270 273 274 273 273 275 277 277 278 278 276 275 276 276 274 274 275 275 272 272 273 272 275 276 276 275 274 274 273 273 273 273 272 272 272 271 271 271 269 268 266 267 268 266 264 265 263 261 260 259 259 258 259 260 260 258 257 257 257 256 255 253 252 252 251 251 254 254 253 252 251 252 252 252 252 252 253 253 254 253
274 276 266 269 272 270 272 273 273 273 274 274 275 276 277 278 277 276 275 274 273 273 272 272 273 274 274 276 275 275 274 273 273 274 274 274 272 272 272 273 272 272 270 269 267 267 269 268 267 267 266 266 264 261 260 259 259 258 259 260 258 257 257 257 256 255 252 251 250 252 253 252 252 252 252 251 251 251 253 252 253 253 254 255 255 256
273 271 271 270 266 266 269 271 273 267 266 274 276 277 278 278 277 276 274 273 273 274 273 274 273 273 274 274 274 273 273 274 272 272 272 274 274 273 272 272 271 270 269 268 267 266 268 267 268 267 266 265 262 261 260 259 258 258 260 258 257 258 257 256 255 254 253 253 252 250 251 252 251 249 251 250 251 251 252 256 259 259 257 257 261 265
275 275 274 271 272 267 272 274 276 277 276 275 277 278 278 277 275 275 275 275 275 275 275 275 274 272 272 272 272 273 273 274 273 272 272 273 273 274 274 272 271 269 269 266 265 263 265 266 265 265 264 264 261 260 260 260 258 258 258 257 257 258 258 257 256 256 255 253 252 252 252 251 251 251 250 250 251 251 252 252 254 260 263 265 265 266
Wind_Speed
1 5 6 9 9 10 7 11 9 2 3 3 3 3 5 5 6 3 3 4 1 1 7 8 6 6 9 4 4 3 3 6 6 6 5 5 5 5 5 5 5 6 5 5 5 6 8 8 8 7 6 7 7 11 10 10 11 11 8 9 11 7 6 7 7 8 8 9 8 11 12 11 9 9 8 11 11 11 10 9 10 11 10 10 10 9
3 4 10 10 6 10 11 6 3 3 3 2 2 3 6 4 9 3 2 2 3 2 3 2 1 7 8 4 5 4 4 5 3 4 5 5 4 4 5 5 5 3 2 6 8 9 8 8 9 8 8 10 12 11 10 11 9 8 9 10 6 5 9 9 8 7 10 8 9 10 8 9 9 9 9 10 10 9 9 11 11 10 9 10 10 9
2 10 11 8 3 3 2 4 3 5 4 2 4 3 2 8 4 7 1 2 1 4 7 3 1 8 3 3 4 5 5 3 3 3 2 4 5 4 4 4 4 5 5 7 7 8 7 9 9 7 7 8 7 7 8 7 9 10 10 8 7 8 8 8 7 9 9 7 7 10 8 8 10 10 9 10 9 9 10 11 11 11 11 11 10 10
3 6 14 3 7 5 1 3 5 2 1 5 2 2 9 3 1 5 1 2 1 1 2 0 4 7 3 3 5 3 2 3 4 5 5 4 4 4 4 3 3 5 5 7 7 7 8 7 7 8 8 8 6 6 7 9 10 8 8 8 8 7 7 7 8 10 9 12 11 11 11 10 10 8 7 9 9 9 11 13 10 11 10 11 11 11
10 2 1 6 6 7 5 3 5 5 6 3 5 6 5 3 5 8 4 1 0 1 1 1 4 8 1 2 1 2 3 4 3 5 5 4 3 2 2 4 4 4 4 4 6 7 7 8 8 7 7 6 6 7 8 8 8 6 8 7 7 7 8 7 7 7 6 8 9 7 8 7 8 8 8 9 11 10 9 9 12 11 10 10 10 10
8 6 3 6 2 4 4 3 7 7 5 2 7 12 9 7 8 3 2 1 5 2 2 1 2 4 2 4 5 3 1 2 2 4 3 2 3 3 4 4 3 3 3 2 3 4 5 5 6 7 7 6 6 7 7 6 7 8 7 8 8 7 7 7 8 7 6 7 7 6 8 9 9 10 10 10 8 9 10 10 6 9 10 10 10 10
6 1 5 5 5 4 5 5 5 8 5 1 6 10 12 7 3 3 2 4 1 1 1 2 3 4 6 3 6 5 3 2 1 1 1 1 1 2 3 2 2 2 3 4 4 4 5 6 6 6 6 6 7 7 5 6 8 9 8 7 7 7 6 6 7 7 8 11 10 12 12 10 9 10 7 6 6 7 6 7 9 8 10 10 10 11
3 0 3 2 4 5 3 6 5 10 7 4 1 4 4 5 6 5 6 6 2 1 2 1 2 4 4 8 4 5 5 2 2 4 2 2 3 2 2 2 2 2 1 2 3 3 3 4 4 4 5 5 6 5 6 7 8 11 10 8 8 6 7 6 7 10 8 11 10 11 11 9 9 9 8 7 7 6 6 8 9 8 8 9 10 10
5 3 5 4 3 4 8 5 6 9 8 3 0 4 6 7 6 6 6 4 1 0 5 3 1 1 4 6 1 3 2 3 7 7 6 6 4 4 3 2 2 1 0 1 3 3 2 2 3 3 4 5 5 5 6 6 7 8 9 9 8 8 7 7 9 10 10 10 9 9 8 11 8 8 7 6 6 7 6 9 8 8 7 8 9 9
1 2 7 8 7 7 3 1 7 11 6 1 6 7 7 8 7 5 5 5 1 2 5 6 4 3 6 6 1 1 3 7 9 10 10 8 7 6 5 4 3 1 0 1 1 1 1 1 2 3 2 4 4 4 5 6 6 8 8 9 10 10 7 6 8 9 11 10 8 10 9 12 8 7 7 6 7 7 6 9 8 7 7 7 7 8
0 3 5 4 6 4 5 2 1 0 1 7 4 8 6 8 5 3 6 3 3 1 7 5 2 4 3 5 7 6 7 6 7 3 4 5 6 6 6 6 5 5 3 3 2 1 1 0 0 2 3 3 4 4 5 6 7 7 8 8 12 9 7 7 8 10 11 9 8 10 10 10 10 8 7 8 8 6 7 8 7 7 6 6 7 7
0 2 0 1 4 4 4 4 4 2 3 5 2 4 5 3 5 4 3 4 1 6 5 1 3 1 6 6 5 6 1 2 10 12 13 11 11 9 8 6 6 5 5 4 3 3 3 4 4 3 4 4 4 5 6 7 6 7 8 8 13 10 9 8 7 9 9 9 10 10 10 10 8 8 7 9 9 7 8 6 6 5 6 7 7 8
3 6 2 1 3 8 3 8 3 3 0 2 6 7 6 3 3 2 2 2 5 5 0 2 2 1 7 8 1 2 6 3 4 6 15 15 12 10 8 8 7 5 5 5 4 4 4 5 5 5 5 5 6 6 6 7 7 7 8 9 12 10 8 8 7 9 9 9 9 9 9 8 7 8 8 8 8 6 7 6 6 7 7 6 8 8
6 1 2 3 2 4 8 9 3 1 4 4 8 7 6 1 1 2 5 1 6 4 4 1 1 2 3 9 5 8 6 3 3 4 4 10 12 13 10 8 7 6 6 6 5 5 5 5 4 4 5 5 5 6 7 6 7 7 8 8 12 10 7 7 8 8 10 10 9 8 8 7 7 8 7 7 7 6 6 5 7 7 6 6 7 7
2 2 6 9 4 4 9 7 11 7 10 8 1 7 7 8 7 4 5 5 5 4 1 4 1 6 5 5 3 2 3 5 4 4 4 4 4 5 5 6 6 6 6 6 6 6 6 6 5 5 5 5 6 6 6 7 7 7 8 8 11 11 7 8 8 9 10 9 9 8 7 7 6 7 6 6 6 6 7 6 7 7 6 6 6 6
5 4 3 1 1 4 11 1 6 6 5 0 2 4 5 7 5 2 4 3 1 0 1 1 5 4 5 1 3 2 3 2 1 3 5 7 6 7 7 8 8 8 8 7 7 7 6 6 5 5 5 5 6 7 6 7 7 7 8 8 9 10 8 8 8 8 8 8 7 8 9 8 7 6 6 6 6 6 6 6 6 6 6 6 5 5
2 3 1 2 2 1 3 3 1 2 6 4 5 5 6 1 7 6 2 1 1 3 8 3 5 4 3 1 1 3 1 2 1 3 6 8 8 8 9 9 9 9 8 8 8 7 7 6 6 6 6 6 6 6 7 7 7 9 9 9 9 8 7 7 7 7 7 7 8 7 8 8 8 8 8 6 7 6 5 5 5 5 5 6 6 6
8 4 1 3 3 1 0 0 2 5 3 9 2 8 1 1 4 4 4 1 2 4 6 4 8 3 5 6 2 1 3 5 5 5 6 6 8 10 10 10 11 10 9 8 7 6 7 6 7 6 6 6 7 7 7 7 6 6 7 8 10 8 9 6 6 7 7 8 8 8 8 7 7 7 7 6 6 5 6 5 5 5 6 7 6 5
3 1 1 2 1 1 1 1 5 2 2 4 3 2 5 2 1 1 3 3 1 4 5 3 2 3 8 6 3 7 8 11 9 7 7 10 11 12 12 12 10 8 7 8 9 8 8 8 8 8 8 7 6 6 7 7 6 6 6 6 7 8 7 7 6 6 6 6 6 6 7 7 7 6 6 6 6 5 7 7 6 6 6 6 6 5
0 5 1 1 2 1 1 3 7 4 1 1 2 2 1 1 1 4 6 3 5 4 2 5 4 6 8 7 14 12 15 12 10 9 13 15 15 14 14 13 13 12 10 9 10 10 9 9 9 9 9 9 9 8 7 7 6 7 6 7 7 6 6 7 7 7 7 6 7 7 7 7 6 5 6 5 6 7 7 6 6 5 5 6 5 5
3 1 3 1 2 2 3 4 8 11 9 1 2 1 0 1 2 3 1 3 3 4 4 3 8 2 5 5 10 11 11 14 17 17 13 12 14 14 14 14 13 11 11 12 11 11 10 9 9 8 7 6 6 5 6 6 7 7 6 7 7 9 8 7 7 7 7 6 6 7 7 6 6 6 5 6 7 7 6 5 5 5 4 4 6 5
2 1 6 2 2 4 5 1 1 3 3 5 10 10 11 7 3 2 8 3 1 2 5 3 12 0 3 2 4 2 3 7 9 10 12 14 14 15 13 12 12 12 12 12 11 9 9 9 9 7 6 5 6 6 7 6 6 7 7 7 7 7 7 8 7 8 6 5 6 7 7 6 5 5 6 7 6 6 6 6 6 5 5 6 5 5
5 3 6 4 6 7 2 1 1 0 0 1 3 3 6 2 3 3 7 4 2 3 4 2 1 8 2 2 1 2 2 6 8 8 9 12 15 15 14 12 9 10 11 10 9 9 9 9 9 9 9 8 9 8 8 7 7 7 8 7 6 8 7 7 7 6 6 6 6 7 6 6 5 5 6 7 6 7 5 4 4 4 4 4 4 4
4 3 2 1 2 2 1 1 1 0 1 1 1 1 3 8 5 5 4 4 7 2 2 1 3 5 0 1 3 3 2 3 6 9 11 9 8 8 8 9 12 12 9 6 7 7 8 8 7 7 8 8 8 8 8 8 7 7 7 7 7 8 8 7 7 6 6 6 7 6 6 6 6 7 6 6 5 5 5 4 4 4 5 5 4 5
5 4 7 3 1 0 2 0 0 0 0 2 2 3 3 2 1 1 4 1 0 8 8 8 14 2 2 2 2 1 1 4 7 7 7 9 7 8 11 12 10 7 5 8 9 9 8 7 9 9 9 9 8 8 8 8 8 7 7 6 7 7 7 7 6 6 6 7 7 6 6 6 5 6 6 6 5 5 5 5 4 5 5 5 5 5
4 4 9 8 10 8 7 7 7 7 8 2 0 1 3 8 5 3 6 2 8 0 8 6 10 2 1 2 4 3 3 3 5 6 5 6 8 10 12 13 10 9 9 8 8 9 12 10 9 8 9 9 9 9 9 8 8 7 7 7 6 9 7 6 5 6 6 5 7 6 6 5 5 5 6 5 5 5 5 5 5 4 4 4 4 4
3 1 6 8 10 11 6 2 0 5 5 4 3 7 5 4 7 4 2 2 10 1 6 8 4 4 6 2 5 7 5 8 7 7 10 10 11 9 7 6 7 9 10 11 10 8 6 9 12 10 10 10 9 7 8 9 8 8 7 7 6 6 7 7 6 6 6 5 6 6 5 4 5 5 5 5 5 4 4 4 4 3 3 4 3 4
3 2 8 5 6 6 6 3 4 3 2 4 6 8 10 11 10 12 12 12 7 4 11 9 5 9 12 4 7 8 7 7 5 4 6 7 9 10 8 5 7 7 7 8 9 11 13 11 10 11 11 11 9 7 7 8 9 9 9 9 7 7 7 5 6 6 6 6 5 5 5 4 5 5 5 4 4 4 3 3 3 3 3 3 4 4
6 7 3 6 8 4 1 2 7 4 6 5 8 11 12 12 9 14 16 9 7 9 15 7 7 9 6 8 10 10 11 11 10 11 11 8 4 3 5 8 10 12 10 11 12 12 12 12 12 13 12 10 8 9 9 8 7 6 6 6 8 7 7 6 7 6 6 6 6 5 5 5 4 4 4 4 4 3 3 3 3 3 3 3 3 3
3 3 3 4 5 2 2 4 3 6 3 2 8 12 15 12 11 13 14 9 12 13 4 5 2 8 8 3 9 10 5 5 3 2 2 4 5 7 7 9 10 10 11 13 12 12 11 12 12 11 10 9 10 10 10 9 9 9 10 8 6 7 6 6 6 7 6 6 6 5 5 4 4 4 3 3 3 3 3 3 3 3 3 4 4 3
3 2 6 3 2 3 1 2 2 4 6 8 12 15 13 3 6 12 8 9 4 7 6 4 5 13 5 6 6 2 1 1 1 2 4 5 6 8 8 8 8 9 10 9 9 10 11 12 11 9 10 12 12 13 12 11 9 8 8 8 8 7 6 6 7 6 7 6 5 4 4 4 3 3 3 3 3 3 3 4 3 3 3 3 3 4
2 2 3 2 4 3 1 5 5 1 1 8 15 19 6 9 12 9 9 7 7 9 7 9 12 13 4 5 4 2 3 4 7 4 4 5 6 6 8 9 9 10 9 9 10 10 11 11 11 12 14 14 14 13 12 11 10 10 10 8 8 7 6 7 7 8 7 6 5 4 4 4 3 3 3 2 2 3 3 3 3 3 3 3 4 4
5 5 5 3 4 4 0 5 5 3 0 7 21 18 11 17 9 2 4 5 12 12 10 10 13 8 5 7 5 7 7 7 4 4 6 4 5 7 9 9 9 8 9 11 12 12 12 12 14 15 15 13 13 13 13 11 11 12 10 10 8 8 7 7 8 8 7 5 5 4 4 3 3 2 2 2 2 2 2 3 3 3 3 4 4 3
4 7 5 5 4 2 2 2 3 5 8 17 3 5 19 17 13 9 9 11 10 11 8 8 7 3 5 6 8 9 8 6 7 7 4 5 6 6 6 6 7 9 8 8 9 10 11 10 10 11 13 13 11 11 9 10 11 9 8 9 9 9 8 9 7 8 7 5 4 4 4 3 2 2 2 2 2 2 2 3 3 2 2 2 3 3
9 6 5 2 5 4 3 5 4 11 18 1 4 6 3 8 12 17 17 10 10 10 8 5 3 5 8 10 9 3 2 3 1 2 3 6 4 4 6 8 9 9 10 8 8 9 10 10 10 8 7 9 9 9 10 8 8 10 9 9 10 7 9 7 8 7 6 6 4 4 3 3 2 2 2 2 2 2 2 2 2 2 2 2 3 4
8 8 3 2 5 4 4 6 6 10 1 2 5 5 2 7 1 2 4 8 8 11 13 11 10 9 9 6 2 3 3 1 1 4 7 6 7 8 7 7 8 6 7 8 10 10 9 10 12 12 11 7 9 9 10 11 9 10 10 8 9 8 6 7 6 7 6 5 4 4 4 3 3 2 2 2 1 2 2 1 1 2 2 2 3 2
7 4 5 5 4 6 6 10 11 5 7 3 1 2 6 7 7 9 8 9 10 9 8 8 11 12 6 2 4 4 3 2 1 6 5 9 8 7 8 8 7 6 5 4 3 4 3 5 6 6 6 7 9 10 10 9 10 10 10 9 8 8 7 6 6 6 7 5 5 5 4 4 3 3 2 2 1 1 1 1 1 2 1 2 3 4
1 9 6 7 6 8 6 4 2 3 11 12 4 2 1 1 5 4 3 7 3 5 9 11 13 14 3 4 5 4 3 2 6 6 5 7 6 7 5 6 3 3 3 3 1 1 2 3 4 6 9 9 8 8 8 10 11 11 10 9 8 8 8 6 7 8 7 7 4 5 5 4 4 4 3 2 1 1 1 0 1 1 1 3 4 4
2 1 2 8 2 5 6 8 7 9 9 1 4 4 2 3 8 5 2 8 4 10 13 14 11 7 6 8 5 5 5 3 7 6 5 3 5 5 6 6 5 4 4 4 4 4 5 5 6 7 7 9 10 9 9 11 11 11 10 9 9 8 8 9 8 9 9 7 6 5 5 4 3 3 3 1 1 0 1 1 1 2 2 2 3 4
2 1 3 5 5 6 6 7 10 4 5 2 3 2 3 4 5 4 3 8 2 8 4 7 11 7 6 7 9 7 8 5 7 7 5 7 6 7 8 7 6 6 5 3 2 4 7 8 9 7 9 12 12 10 11 10 10 9 11 10 9 9 9 10 9 8 7 6 6 6 4 3 4 3 2 2 1 0 1 1 1 2 2 3 2 4
4 1 4 11 10 10 12 8 2 6 2 2 7 4 5 2 5 3 13 4 3 6 6 7 7 7 9 9 8 7 9 7 6 3 1 2 3 2 3 2 3 4 6 6 6 6 7 8 10 12 13 9 9 11 11 10 10 10 9 10 10 11 10 7 8 8 7 6 6 5 5 3 3 2 1 1 0 0 1 1 2 3 3 3 3 3
2 3 3 1 8 9 7 7 8 5 3 8 1 8 6 5 3 9 5 3 10 8 7 7 8 7 10 12 10 8 8 5 3 3 3 3 4 2 3 4 3 2 1 3 6 7 6 7 6 4 4 6 10 10 10 10 11 9 10 9 11 9 7 9 9 8 6 6 5 5 4 3 2 2 1 0 1 0 1 1 1 2 3 2 3 5
10 8 7 9 2 3 2 7 2 9 2 10 10 2 2 5 7 5 2 1 2 7 11 8 7 7 9 8 9 10 4 2 5 5 4 4 4 4 4 5 7 7 7 5 4 6 8 8 9 10 9 8 9 9 9 10 11 10 9 11 10 8 8 9 8 7 6 6 5 4 3 2 2 1 1 0 0 0 2 2 2 3 3 4 4 5
4 5 3 4 6 7 8 9 8 2 9 13 14 8 6 8 5 4 7 4 1 5 8 8 6 8 10 9 11 7 5 3 1 4 3 4 5 3 2 4 4 4 4 5 5 9 8 8 6 7 6 7 8 8 9 12 12 10 11 11 7 7 7 7 6 7 6 5 5 5 3 2 1 1 0 1 0 0 1 2 2 3 3 3 3 4
6 9 6 7 4 8 8 4 0 2 12 12 8 4 6 7 5 9 6 8 7 5 4 5 9 7 10 10 7 8 6 6 7 5 6 6 5 5 6 8 8 9 8 9 8 6 6 10 8 7 6 7 8 7 9 8 12 11 12 7 8 9 9 8 7 7 6 5 5 3 3 1 0 0 0 1 1 1 2 2 1 3 2 3 3 3
3 3 2 3 5 1 1 2 1 1 3 8 5 2 1 3 2 4 6 6 5 6 10 9 7 8 9 5 6 3 6 6 7 5 5 5 4 5 3 3 5 5 5 4 4 8 7 5 5 7 8 6 6 7 7 8 8 14 9 9 9 9 9 10 9 7 7 6 5 4 3 1 0 0 1 2 2 2 2 3 2 3 4 3 3 3
2 2 1 3 3 2 5 2 6 6 4 6 10 4 1 2 5 5 4 6 6 6 8 5 5 8 10 10 9 9 9 7 6 6 5 4 5 6 6 7 7 7 8 9 8 7 6 7 7 9 10 11 8 9 8 8 5 4 7 10 9 9 9 9 9 7 6 6 5 4 4 2 2 1 1 1 1 2 2 3 3 3 3 3 3 3
4 4 2 4 1 4 6 3 3 3 2 3 4 5 6 8 4 4 4 1 3 3 5 6 3 3 5 6 11 10 10 7 7 8 6 7 7 7 7 7 8 5 7 7 6 8 6 8 11 11 11 12 11 9 8 7 7 5 7 7 9 9 9 9 8 8 7 7 5 4 4 4 3 3 2 2 2 2 3 3 3 3 4 4 4 3
3 5 4 4 5 2 2 1 1 4 4 3 5 6 8 6 3 4 5 2 2 4 4 4 5 6 9 11 10 10 8 7 9 10 9 7 6 5 8 9 8 8 5 7 8 10 12 11 12 12 13 13 8 9 8 8 6 7 9 8 9 9 10 8 7 6 6 5 5 5 3 4 3 3 3 3 2 3 3 4 3 4 5 6 6 6
5 5 2 3 1 4 7 5 5 3 3 6 8 11 11 11 6 3 2 4 6 6 6 6 7 5 8 6 7 8 10 8 8 7 8 9 8 8 7 7 7 6 6 7 7 9 9 9 12 12 13 9 8 10 9 8 7 7 7 9 10 9 9 10 8 6 6 6 6 4 4 4 3 3 3 3 3 3 4 6 10 9 7 6 11 16
8 9 7 7 9 5 4 8 10 8 6 6 8 10 11 6 5 6 7 8 8 9 8 8 8 6 7 8 6 10 10 9 8 8 8 7 9 9 9 8 7 6 8 6 6 7 10 10 8 7 7 8 8 9 10 9 9 9 8 10 9 9 8 9 8 7 6 5 6 6 5 4 4 3 3 2 2 2 3 6 7 8 11 13 12 13
Wind_Direction
111 139 182 208 210 199 202 197 202 171 138 110 104 121 202 220 278 281 260 255 324 37 235 239 258 259 271 335 325 341 27 55 48 50 48 42 42 41 34 34 21 32 23 326 346 5 3 1 -0 355 359 5 20 24 14 24 26 25 17 38 43 20 27 57 58 54 53 59 65 59 58 66 48 46 47 49 43 44 41 32 39 41 39 38 37 31
68 176 234 223 199 186 202 196 107 92 88 168 161 183 259 174 253 237 229 14 309 158 300 63 320 267 262 341 349 341 55 37 18 55 51 50 50 43 40 30 15 346 316 3 16 8 7 5 3 5 12 10 23 6 13 26 22 22 24 41 36 17 44 47 51 76 71 69 72 84 71 76 63 44 43 48 40 37 35 35 35 39 41 43 44 39
137 204 231 224 157 112 83 158 181 187 183 109 196 207 277 256 243 283 278 356 298 138 262 42 277 265 274 17 26 44 67 63 39 62 61 75 52 43 36 25 16 18 15 19 16 8 7 2 7 13 13 19 18 9 20 12 31 28 29 26 31 33 47 50 61 68 76 69 69 82 84 81 82 61 60 66 57 46 49 44 38 36 37 40 40 36
231 275 245 188 135 124 58 105 135 112 120 186 134 145 234 193 144 289 283 4 13 133 274 320 327 280 68 73 50 24 78 103 64 71 64 58 72 64 52 41 24 19 14 21 8 4 0 6 7 12 16 5 7 17 20 24 31 31 27 25 32 38 44 51 52 78 82 85 86 79 84 77 74 79 74 74 60 50 45 43 37 40 39 39 45 39
202 206 340 138 154 159 188 151 135 155 220 252 195 212 233 184 222 192 238 268 354 55 69 256 319 293 79 212 274 44 108 87 26 55 55 40 56 60 112 68 46 41 16 13 8 5 5 9 10 6 360 353 20 20 25 24 33 34 28 24 34 39 43 46 48 57 88 104 92 93 86 85 88 67 58 55 44 39 43 45 35 32 32 39 45 44
282 252 114 86 117 170 146 168 206 160 224 297 228 208 217 209 219 254 351 7 12 329 340 148 345 303 263 250 201 197 325 34 351 76 36 20 30 52 62 55 29 30 32 35 17 4 353 5 356 8 4 14 20 27 16 23 48 46 37 27 30 44 41 46 52 58 74 68 84 82 70 60 58 55 40 45 46 41 40 46 44 40 33 36 45 45
205 71 165 175 149 155 181 202 228 164 181 132 267 198 215 207 170 151 139 99 237 166 323 27 162 260 329 311 194 166 146 65 2 34 266 343 43 72 105 75 46 23 14 21 32 17 26 10 19 9 7 355 28 19 359 28 53 59 56 43 37 42 46 47 60 67 83 77 70 72 77 80 72 86 66 59 53 60 57 54 47 44 37 33 38 39
122 70 108 97 137 153 151 239 233 161 135 229 245 135 142 149 176 187 154 170 204 257 302 51 125 190 317 294 80 142 131 133 219 244 256 231 212 196 150 126 78 33 351 27 24 19 11 5 360 10 349 357 12 8 12 36 45 59 61 61 52 45 49 45 65 70 64 82 81 85 85 80 81 76 87 68 63 56 55 57 47 43 42 38 36 37
152 173 167 163 159 146 209 212 170 169 147 223 216 137 150 163 176 140 143 165 191 60 275 321 214 274 246 260 56 162 185 208 234 216 211 207 219 204 199 162 144 209 265 148 86 41 355 350 354 355 11 353 16 14 32 35 46 61 67 71 67 57 50 43 58 77 73 80 87 89 93 89 77 83 82 81 67 62 49 61 45 45 42 42 40 39
301 169 206 161 146 209 215 305 173 169 186 227 124 90 81 74 68 107 109 116 354 101 257 244 189 218 274 270 304 357 227 247 213 208 193 202 195 197 191 188 186 231 355 259 245 256 283 291 327 332 340 26 10 10 33 47 58 66 75 80 76 64 55 53 61 72 77 80 87 87 84 89 91 86 86 76 69 61 50 60 49 42 41 36 38 38
232 300 170 123 191 198 132 48 118 40 89 131 113 76 41 40 39 36 63 83 69 261 242 228 244 177 295 253 216 153 217 200 146 111 160 198 213 218 206 185 180 176 191 217 240 264 261 280 291 10 60 44 37 37 55 59 58 67 76 83 74 61 63 57 62 69 74 77 75 83 84 86 90 85 86 80 66 61 54 55 48 45 42 39 40 36
23 8 180 254 93 109 98 76 27 95 127 126 120 127 86 11 9 30 341 29 148 267 261 264 224 180 171 285 274 229 322 178 164 172 174 189 199 199 192 195 193 190 198 215 221 179 114 97 77 70 95 82 73 70 69 69 66 75 79 85 83 60 57 58 66 72 73 78 78 79 82 84 83 86 82 78 77 64 67 60 59 52 50 43 43 39
271 213 225 0 202 128 111 86 8 43 345 82 90 86 121 235 41 277 16 256 212 208 245 348 131 86 238 230 198 215 201 218 240 183 179 180 187 190 192 191 188 187 189 208 194 183 180 150 142 131 128 108 94 94 91 86 87 86 85 87 93 76 66 68 73 80 82 81 79 84 86 87 86 82 81 82 81 70 69 62 59 48 49 39 39 33
268 282 174 197 87 225 142 134 159 88 211 137 162 149 105 108 67 258 269 276 310 285 281 334 179 278 249 285 216 188 207 193 225 234 215 187 181 182 183 181 182 189 196 198 200 200 183 177 170 163 142 133 126 110 103 102 97 96 96 94 93 95 82 89 86 88 88 81 84 85 89 87 89 83 80 78 81 73 71 67 65 58 52 52 47 40
187 291 238 149 233 168 181 178 177 161 165 210 76 154 182 142 156 218 185 211 218 187 267 282 75 229 138 235 354 246 284 292 260 245 236 226 193 171 154 161 178 193 205 199 200 202 193 190 190 178 167 150 142 131 118 112 109 109 103 105 104 104 93 91 92 92 88 88 84 86 85 88 86 89 84 79 77 74 71 62 65 58 54 56 48 45
211 228 271 282 344 149 181 191 120 98 52 286 184 70 91 231 142 210 200 156 193 298 319 217 214 188 187 175 291 321 318 299 327 238 185 205 175 149 157 181 193 200 200 197 201 205 209 206 200 193 182 174 153 143 132 122 125 117 116 111 107 109 115 104 100 90 91 90 89 88 90 88 89 89 86 77 66 63 65 68 69 67 59 53 48 44
41 268 325 354 62 129 191 131 153 142 188 201 107 195 210 143 103 92 71 61 78 51 254 153 297 293 301 331 328 325 21 273 338 198 181 186 169 164 184 193 202 205 200 198 200 196 198 202 213 203 190 177 166 152 147 146 144 136 130 124 115 113 111 109 102 103 95 93 90 82 83 85 82 82 82 85 79 76 67 67 64 66 60 52 45 38
141 231 297 102 207 333 230 202 96 36 146 100 189 230 168 153 122 132 215 20 67 199 267 115 205 213 110 253 84 6 247 250 231 194 196 180 165 185 197 198 203 203 200 200 199 199 202 202 199 200 200 189 174 164 154 155 157 141 136 133 128 129 122 121 111 102 102 100 91 87 80 75 82 90 88 86 85 76 77 67 63 60 56 47 37 36
121 277 304 336 98 336 8 101 46 353 51 149 194 209 122 215 194 303 86 255 206 252 264 274 265 259 186 219 108 234 207 225 203 191 181 190 189 197 200 206 208 205 194 193 198 198 202 204 202 194 193 189 184 173 165 155 155 147 140 136 130 130 129 128 115 104 91 91 92 88 86 88 83 77 80 80 82 82 75 65 56 55 58 52 39 35
51 155 282 351 129 204 35 107 184 201 312 46 77 81 46 112 172 127 197 183 118 261 54 288 115 239 197 212 185 201 202 201 168 182 206 200 195 192 197 200 200 198 193 194 198 200 198 198 200 195 188 184 181 175 174 164 154 157 149 132 124 114 113 109 107 110 103 97 100 93 86 73 81 82 88 88 87 79 74 70 62 59 57 50 42 38
153 119 205 299 289 104 168 190 211 166 166 87 84 240 121 0 219 110 353 134 183 187 202 272 292 268 252 208 179 203 196 184 177 192 193 197 201 203 201 196 197 192 194 197 196 196 191 195 200 199 194 186 177 167 163 167 164 157 145 140 143 134 127 119 126 114 110 108 102 102 96 100 97 94 91 87 80 81 75 70 63 56 54 48 42 32
102 163 179 151 114 216 236 248 188 183 191 175 170 190 178 135 145 172 253 57 95 150 244 147 265 125 265 132 191 185 237 183 207 178 184 197 200 201 204 205 197 195 202 199 196 188 185 193 198 194 185 184 170 176 178 176 147 152 159 153 143 131 133 136 138 127 126 112 109 106 110 105 100 98 91 87 82 80 74 59 53 48 44 51 38 35
147 139 104 174 198 195 235 342 322 300 134 164 164 239 181 217 109 140 228 232 29 253 97 161 338 268 257 204 180 216 181 185 182 183 198 201 200 202 205 203 203 206 201 198 189 182 186 194 194 188 185 182 181 184 179 166 168 167 160 153 156 140 152 145 139 127 125 117 113 109 107 105 100 100 91 84 75 74 72 71 67 57 59 52 42 37
108 98 97 310 326 317 327 294 38 68 98 97 305 81 133 205 194 224 225 171 174 152 130 344 254 270 275 239 266 257 225 196 196 191 199 205 209 209 201 201 203 204 204 173 171 183 195 193 183 176 183 186 189 188 180 176 169 164 159 158 152 147 148 143 133 133 123 118 108 110 111 102 96 89 90 91 92 87 73 68 61 48 49 39 30 33
132 239 133 141 46 10 348 345 121 0 64 216 193 205 186 171 68 105 92 67 221 209 176 150 246 183 240 343 299 2 114 190 210 209 186 202 200 198 204 209 208 198 166 175 183 190 188 187 187 193 191 190 190 186 178 171 168 163 166 164 157 148 147 132 138 133 127 121 116 108 100 101 103 106 99 93 86 74 64 52 47 38 36 29 23 23
127 160 149 180 196 191 197 188 203 218 215 203 140 138 226 188 156 118 243 170 228 226 144 205 239 154 290 320 300 295 319 276 245 208 216 211 202 201 207 207 196 184 191 182 185 185 196 193 193 193 192 195 195 186 173 168 163 167 166 172 161 143 141 140 138 135 129 126 110 112 118 120 112 100 95 89 78 67 57 51 44 37 29 33 14 20
155 138 186 190 191 218 211 164 320 109 84 166 207 179 196 195 190 163 87 184 219 175 203 236 239 292 273 203 244 246 217 224 218 189 200 209 219 222 220 203 187 191 190 189 188 190 180 200 201 196 198 198 196 180 173 166 168 169 162 156 156 148 141 144 139 138 123 117 121 125 117 111 103 98 92 87 83 77 71 62 54 40 38 24 21 20
102 173 221 200 221 209 144 145 191 135 171 199 194 215 205 187 185 184 194 223 141 128 251 237 189 216 243 182 217 225 227 239 243 223 219 231 225 211 204 186 182 182 188 174 181 190 199 199 195 198 200 198 195 173 175 175 173 169 167 160 157 151 143 144 135 126 124 128 120 114 113 103 100 96 96 100 98 90 84 73 55 46 33 33 22 21
149 198 212 154 245 212 197 158 160 168 209 202 210 222 223 210 180 197 219 216 145 207 246 259 180 212 235 192 203 207 200 205 206 211 212 211 204 171 167 184 192 198 190 186 197 194 191 194 199 202 200 197 177 179 182 181 176 163 147 145 150 149 151 144 130 129 131 122 113 113 114 113 103 105 106 102 101 92 81 69 55 42 41 32 24 16
97 243 176 168 233 259 178 154 160 181 198 204 229 228 230 217 206 212 231 219 207 232 238 98 172 228 228 170 196 219 192 189 216 180 130 164 196 186 189 200 202 200 195 198 195 193 193 199 204 203 194 187 188 184 183 184 179 174 162 157 157 150 148 136 140 136 126 110 114 116 112 108 102 102 102 99 96 83 75 65 47 38 35 25 17 6
128 255 111 133 130 267 116 85 151 193 186 235 243 239 230 186 210 221 225 232 213 262 250 196 212 251 232 176 212 261 196 153 96 166 184 195 184 189 195 203 203 202 204 200 194 197 201 204 202 192 193 197 194 194 190 187 173 165 163 158 154 153 151 141 137 122 112 115 121 122 117 108 107 108 102 88 82 74 64 49 36 34 27 17 7 358
139 224 56 121 167 277 222 165 196 136 185 235 255 245 168 151 217 204 204 194 180 210 215 238 245 250 248 202 201 190 177 178 211 200 183 214 204 191 193 203 203 203 199 202 203 203 207 204 198 198 200 200 199 194 188 180 172 167 168 160 157 146 139 136 127 118 113 119 126 120 113 113 119 110 100 88 74 73 67 54 39 30 21 2 1 355
175 135 139 145 182 216 230 160 162 116 6 289 248 240 173 204 204 87 216 190 201 189 203 217 236 234 186 176 164 229 207 223 229 215 219 226 206 194 201 206 210 208 202 197 199 206 206 203 203 203 205 203 198 193 192 173 162 178 164 158 151 133 136 131 126 119 119 124 123 118 116 126 127 121 117 100 102 82 73 67 34 26 9 2 345 334
133 158 169 172 166 155 25 118 121 142 210 233 317 165 184 203 185 171 206 203 214 185 210 214 236 133 133 163 190 222 210 211 203 227 195 194 193 203 220 216 215 213 212 214 211 209 211 208 211 211 208 205 199 190 171 170 172 160 148 142 136 139 138 131 122 120 126 128 130 134 136 139 140 139 136 137 99 80 66 57 26 8 342 339 336 338
170 174 173 165 145 167 125 121 170 212 230 37 317 334 302 204 180 203 222 217 211 218 240 269 252 191 202 198 208 201 175 218 218 181 218 222 194 191 197 211 214 211 214 211 213 216 211 208 209 206 201 198 181 164 153 157 146 133 133 143 138 141 134 136 131 126 137 141 144 145 150 151 153 149 146 126 95 78 63 49 10 348 341 342 326 327
174 167 138 84 110 63 109 183 208 229 271 326 337 340 15 80 75 125 308 269 233 208 206 220 238 232 224 219 119 133 151 174 355 247 231 237 195 195 202 227 234 215 212 207 201 208 197 198 197 197 201 167 151 162 166 161 146 145 148 141 141 141 144 140 139 140 139 145 159 159 157 153 152 156 142 125 123 94 36 35 346 337 328 321 304 286
174 132 162 185 168 169 191 199 231 356 315 241 12 229 166 151 165 158 213 250 225 199 178 196 233 244 229 135 144 106 117 106 287 279 238 223 218 213 206 222 220 226 225 252 205 238 201 195 193 184 146 156 163 159 167 150 148 143 141 149 149 146 146 144 150 159 159 160 162 165 161 153 153 163 153 160 162 112 32 359 319 323 308 308 302 305
255 183 207 189 215 159 157 195 300 270 248 253 205 231 148 143 139 169 145 272 281 183 178 183 219 235 168 125 118 132 103 57 305 277 260 227 212 214 237 249 260 242 228 238 205 176 146 148 132 143 154 156 161 161 146 149 149 147 150 155 153 153 156 162 173 160 158 164 162 163 157 155 155 163 169 178 163 142 320 302 301 289 296 305 305 300
33 87 288 211 204 111 195 217 218 224 249 129 180 171 178 142 126 113 78 268 254 186 200 189 212 224 167 150 159 139 97 164 247 243 263 215 215 205 207 233 233 237 231 213 192 176 164 143 139 133 132 147 161 168 154 153 150 151 160 161 164 164 167 184 173 167 167 166 158 152 145 152 157 162 171 175 164 153 262 291 292 293 289 270 275 283
104 91 163 237 215 207 194 224 227 226 253 240 196 186 205 155 123 75 301 270 259 209 188 162 204 196 154 161 149 150 154 184 242 252 221 204 196 195 186 205 214 225 232 208 214 171 150 135 120 136 157 179 184 153 156 153 158 163 163 168 161 172 188 189 178 157 145 142 144 140 144 152 153 168 164 171 143 196 247 278 289 284 297 295 289 292
170 251 208 211 216 221 223 241 354 286 258 158 173 163 183 160 84 113 235 234 220 189 200 186 196 170 152 148 163 163 226 185 194 203 153 122 120 200 236 235 201 197 198 186 183 145 151 169 170 179 188 182 155 157 160 161 158 172 171 164 172 196 191 162 138 144 144 139 136 138 143 145 154 160 177 159 175 233 311 291 296 306 294 293 295 291
346 97 333 126 224 224 225 224 234 262 207 150 280 159 176 103 195 214 237 192 148 189 206 190 177 171 163 168 183 200 214 195 132 104 116 167 173 210 206 186 132 95 77 162 164 160 162 171 178 165 163 167 161 164 166 166 173 172 167 171 197 190 141 141 141 136 140 143 139 139 140 146 159 149 152 147 134 127 289 278 292 293 290 284 296 296
182 144 201 198 198 62 139 235 225 232 161 127 127 45 297 138 240 193 138 14 186 169 166 201 190 185 170 192 205 205 207 134 174 195 193 199 210 217 178 170 183 186 175 147 173 194 165 171 188 193 184 163 164 167 174 172 175 175 171 193 191 144 145 140 139 138 138 134 136 143 151 161 156 164 146 149 174 199 273 290 299 291 283 285 287 287
209 111 240 241 188 189 194 212 214 207 138 171 143 178 210 201 183 156 131 182 180 162 174 173 214 191 190 187 197 221 231 217 275 228 213 230 227 230 196 208 214 209 212 217 193 180 178 193 192 184 169 168 169 175 176 179 178 178 183 196 135 142 136 138 135 135 134 141 146 152 166 172 161 155 161 177 180 196 255 283 283 279 259 266 274 289
215 184 184 183 213 159 202 211 137 175 156 191 188 178 200 182 153 176 149 167 168 231 194 176 200 197 198 197 194 188 201 215 219 199 182 223 212 201 201 211 201 205 205 201 206 183 184 194 189 175 172 181 179 184 186 193 182 175 191 172 146 150 148 142 142 140 149 155 160 167 174 160 154 192 217 239 178 222 250 276 259 282 269 268 280 277
337 140 191 86 265 271 287 165 106 16 223 206 247 205 152 152 212 160 158 150 214 179 167 186 205 191 196 192 162 206 203 210 205 224 220 238 224 232 221 229 231 226 217 190 188 183 189 174 153 168 185 196 193 191 191 200 184 184 190 146 158 152 149 145 145 154 163 163 166 178 154 137 319 267 245 249 216 207 220 228 248 259 276 268 265 263
243 137 91 183 273 98 267 90 162 194 196 206 221 219 106 218 196 180 180 191 186 174 190 219 180 187 186 174 188 195 216 209 202 220 214 228 233 233 221 221 229 210 200 205 203 151 162 169 174 191 192 201 200 194 197 196 212 184 141 165 156 151 146 149 153 158 162 170 171 162 156 161 224 256 242 223 245 232 230 227 226 239 262 257 263 269
309 170 106 231 132 170 242 204 216 330 265 248 235 224 241 239 214 202 214 117 134 169 185 198 137 144 143 178 203 201 219 205 190 219 215 216 220 222 222 226 231 226 223 204 168 171 168 183 196 200 196 209 198 191 189 191 188 164 152 152 151 144 145 150 163 167 175 176 170 171 171 177 206 215 238 236 204 246 252 234 220 221 241 239 250 250
183 115 210 189 183 262 32 339 337 346 340 274 233 239 239 242 197 208 212 173 120 152 201 210 206 184 176 203 197 200 209 215 198 202 205 216 219 224 227 227 225 222 197 175 189 175 188 195 201 206 200 210 181 178 182 188 174 166 160 150 149 153 150 160 164 161 162 163 157 180 178 186 196 199 213 253 254 242 225 244 248 243 255 242 234 234
103 219 197 85 246 226 185 206 154 119 258 248 227 226 231 232 206 202 136 167 188 193 196 193 227 220 208 207 185 192 203 215 208 196 213 218 216 221 227 231 231 218 210 204 175 194 204 205 204 205 207 204 167 176 180 181 175 173 162 153 151 157 160 150 151 159 176 163 176 183 180 193 200 204 208 221 251 283 290 250 250 248 239 249 254 253
177 213 143 191 208 237 222 188 192 198 218 215 202 216 222 217 167 198 217 218 216 208 196 194 215 225 228 232 204 192 211 210 213 195 217 227 229 222 220 218 219 216 214 184 172 202 210 214 210 209 210 193 169 178 183 182 176 172 167 158 156 161 161 157 154 156 172 172 189 188 186 187 195 201 200 212 219 226 269 310 301 288 283 279 275 273